This demonstration page uses our WeatherBlox Daily Observations layout. Learn more.

Left ArrowRight Arrow

36.17497, -115.13722

Hourly Observations for April 18, 2016

Temp ( °F °C ) Dew Point ( °F °C ) Humidity (%) Winds ( mph kmh ) Pressure ( in mb ) Visibility ( mi km ) Precip ( " mm )
12:53 am 00:53 Clear 65 18.3 13 -10.6 13 13 ESE 7 11 30.13 1020 10 16.0934 0 0
1:53 am 01:53 Clear 64 17.8 14 -10 14 14 SSE 3 6 30.14 1021 10 16.0934 0 0
2:53 am 02:53 Clear 62 16.7 15 -9.4 16 16 WNW 5 7 30.14 1021 10 16.0934 0 0
3:53 am 03:53 Clear 60 15.6 17 -8.3 19 19 SSW 3 6 30.15 1021 10 16.0934 0 0
4:53 am 04:53 Clear 59 15 17 -8.3 19 19 Calm 30.16 1021 10 16.0934 0 0
5:53 am 05:53 Clear 55 12.8 21 -6.1 26 26 NW 6 9 30.16 1022 10 16.0934 0 0
6:53 am 06:53 Sunny 58 14.4 20 -6.7 23 23 W 6 9 30.18 1022 10 16.0934 0 0
7:53 am 07:53 Sunny 62 16.7 20 -6.7 20 20 SE 3 6 30.21 1023 10 16.0934 0 0
8:53 am 08:53 Sunny 65 18.3 16 -8.9 15 15 Calm 30.21 1023 10 16.0934 0 0
9:53 am 09:53 Sunny 68 20 18 -7.8 15 15 SE 6 9 30.21 1023 10 16.0934 0 0
10:53 am 10:53 Sunny 71 21.7 19 -7.2 14 14 Calm 30.19 1023 10 16.0934 0 0
11:53 am 11:53 Sunny 73 22.8 18 -7.8 12 12 VRB 3 6 30.17 1022 10 16.0934 0 0
12:53 pm 12:53 Sunny 73 22.8 17 -8.3 12 12 VRB 3 6 30.15 1021 10 16.0934 0 0
1:53 pm 13:53 Sunny 77 25 17 -8.3 10 10 E 7 11 30.12 1020 10 16.0934 0 0
2:53 pm 14:53 Sunny 77 25 16 -8.9 10 10 VRB 6 9 30.09 1019 10 16.0934 0 0
3:53 pm 15:53 Sunny 78 25.6 15 -9.4 9 9 SSE 7 11 30.06 1018 10 16.0934 0 0
4:53 pm 16:53 Sunny 79 26.1 15 -9.4 9 9 SE 13 20 30.04 1017 10 16.0934 0 0
5:53 pm 17:53 Sunny 78 25.6 16 -8.9 9 9 SSE 10 17 30.03 1017 10 16.0934 0 0
6:53 pm 18:53 Sunny 77 25 16 -8.9 10 10 SSE 9 15 30.02 1017 10 16.0934 0 0
7:53 pm 19:53 Clear 75 23.9 17 -8.3 11 11 SE 7 11 30.02 1017 10 16.0934 0 0
8:53 pm 20:53 Clear 71 21.7 19 -7.2 14 14 E 5 7 30.03 1017 10 16.0934 0 0
9:53 pm 21:53 Clear 70 21.1 21 -6.1 16 16 Calm 30.04 1017 10 16.0934 0 0
10:53 pm 22:53 Clear 67 19.4 23 -5 19 19 NNW 3 6 30.04 1017 10 16.0934 0 0
11:53 pm 23:53 Clear 64 17.8 26 -3.3 24 24 N 6 9 30.05 1018 10 16.0934 0 0

Powered by AerisWeather